This is the latest recevied weather packets stored in our database for station/object KI4BIY. If no packets are shown the sender has not sent any weather packets the latest 1 day(s).
| Time | Temp. | Humidity | Pressure | Rain* | Wind** | Luminosity | Snow |
|---|---|---|---|---|---|---|---|
| 1777989546 | 15° C | 97% | 1009.4 hPa | 7.87 mm | 0 m/s | 10 W/m² | - |
| 1777989243 | 15° C | 96% | 1009.7 hPa | 6.1 mm | 0.89 m/s, 221° | 7 W/m² | - |
| 1777988939 | 15° C | 95% | 1009.9 hPa | 6.1 mm | 0.45 m/s, 220° | 8 W/m² | - |
| 1777988636 | 15.56° C | 94% | 1009.9 hPa | 6.1 mm | 0 m/s | 9 W/m² | - |
| 1777988333 | 15.56° C | 93% | 1009.9 hPa | 4.32 mm | 0 m/s | 6 W/m² | - |
| 1777988029 | 15.56° C | 91% | 1009.6 hPa | 3.05 mm | 0 m/s | 6 W/m² | - |
| 1777987725 | 16.11° C | 89% | 1009.5 hPa | 3.05 mm | 0.45 m/s, 239° | 4 W/m² | - |
| 1777987422 | 16.11° C | 88% | 1009.9 hPa | 1.27 mm | 0 m/s | 2 W/m² | - |
| 1777987119 | 16.67° C | 86% | 1010 hPa | 0 mm | 0.45 m/s, 228° | 6 W/m² | - |
| 1777986817 | 16.67° C | 83% | 1009.9 hPa | 0 mm | 0 m/s | 4 W/m² | - |
| 1777986514 | 17.22° C | 81% | 1009.9 hPa | 0 mm | 0.89 m/s, 209° | 3 W/m² | - |
| 1777986212 | 17.22° C | 80% | 1009.6 hPa | 0 mm | 0.89 m/s, 214° | 3 W/m² | - |
| 1777985909 | 17.22° C | 80% | 1009.5 hPa | 0 mm | 0.89 m/s, 220° | 2 W/m² | - |
| 1777985606 | 17.22° C | 80% | 1009.8 hPa | 0 mm | 0.45 m/s, 235° | 2 W/m² | - |
| 1777985303 | 17.22° C | 80% | 1009.7 hPa | 0 mm | 0.45 m/s, 200° | 3 W/m² | - |
| 1777985000 | 17.22° C | 80% | 1009.5 hPa | 0 mm | 0.45 m/s, 203° | 5 W/m² | - |
| 1777984696 | 17.22° C | 79% | 1009.6 hPa | 0 mm | 0.45 m/s, 243° | 9 W/m² | - |
| 1777984393 | 17.22° C | 79% | 1009.4 hPa | 0 mm | 0.89 m/s, 208° | 21 W/m² | - |
| 1777984089 | 17.22° C | 79% | 1009.4 hPa | 0 mm | 0.45 m/s, 188° | 19 W/m² | - |
| 1777983786 | 17.22° C | 79% | 1009.4 hPa | 0 mm | 0.45 m/s, 243° | 13 W/m² | - |
| 1777983482 | 17.22° C | 79% | 1009.1 hPa | 0 mm | 0.89 m/s, 206° | 14 W/m² | - |
| 1777983180 | 17.22° C | 79% | 1009.1 hPa | 0 mm | 0.45 m/s, 245° | 12 W/m² | - |
| 1777982876 | 17.22° C | 79% | 1009.1 hPa | 0 mm | 0.89 m/s, 200° | 10 W/m² | - |
| 1777982572 | 17.22° C | 78% | 1009 hPa | 0 mm | 0.89 m/s, 203° | 8 W/m² | - |
| 1777982271 | 17.22° C | 79% | 1008.9 hPa | 0 mm | 0.45 m/s, 207° | 6 W/m² | - |
* Rain latest hour (hover to see other rain measurements)
** Current wind speed in m/s (hover to see current wind gust speed)